User: anonymous   Login
Location: Unspecified
(39.0670°S, 0.0000°E)
Time: 03:29:55
(UTC+00:00)
Language:

BEESAT 3 - Orbit

View from above orbital plane
View from above orbital plane
View from above satellite
View from above satellite

Ground track
Ground track

The orbit data is extracted from the following two-line orbital elements,

1 39134U 13015E   19262.77329755  .00000782  00000-0  44798-4 0  9998
2 39134  64.8621  78.8343 0035685 288.8939  70.8320 15.20319259354746
Epoch (UTC): 19 September 2019 18:33:32
Eccentricity: 0.0035685
inclination: 64.8621°
perigee height: 480 km
apogee height: 529 km
right ascension of ascending node: 78.8343°
argument of perigee: 288.8939°
revolutions per day: 15.20319259
mean anomaly at epoch: 70.8320°
orbit number at epoch: 35474

The dashed part of the orbit path shows where the satellite is in the earth's shadow,  

DLR